Location: Burbank
(38.7788°N, 114.0429°W)
Time: 13:49:04
(UTC+00:00)

Vanguard 2 Rocket - Pass Details

Date: 19 May 2026
Orbit: 553 x 3286 km, 32.9° (Epoch: 6 June)

Event Time Altitude Azimuth Distance (km) Brightness Sun altitude
Rises 21:55:38 0° 278° (W) 6,095 11.6 53.9°
Reaches altitude 10° 21:59:17 10° 274° (W) 5,373 11.5 53.3°
Maximum altitude 22:16:01 56° 203° (SSW) 3,646 11.2 50.2°
Drops below altitude 10° 22:34:54 10° 132° (SE) 5,958 10.9 46.6°
Sets 22:39:15 0° 129° (SE) 6,766 11.1 45.8°
